Camp Douglas, WI

2:41 PM CST on February 26, 2017 (GMT -0600)
Volk

Weather History for KVOK - April, 2013

Change the Weather History Date:

Thursday, April 18, 2013

  Actual Average Record
Temperature  
Mean Temperature 38 °F -  
Max Temperature 41 °F 55 °F 82 °F (2002)
Min Temperature 35 °F 37 °F 23 °F (2014)
Degree Days  
Heating Degree Days 26    
Moisture  
Dew Point 38 °F    
Average Humidity 98    
Maximum Humidity 100    
Minimum Humidity 93    
Precipitation  
Precipitation 0.03 in - - ()
Sea Level Pressure  
Sea Level Pressure 29.57 in    
Wind  
Wind Speed 9 mph (NE)    
Max Wind Speed 17 mph    
Max Gust Speed 24 mph    
Visibility 6 miles    
Events Rain , Thunderstorm    
Averages and records for this station are not official NWS values.
T = Trace of Precipitation, MM = Missing Value Source: NWS Daily Summary

Daily Weather History Graph

Daily Weather History Graph

Search for Another Location

Airport or City:

Trip Planner

Search our weather history database for the weather conditions in past years. The results will help you decide how hot, cold, wet, or windy it might be!

Date:

Astronomy

Apr. 18, 2013 Rise Set
Actual Time 6:12 AM CDT 7:48 PM CDT
Civil Twilight 5:42 AM CDT 8:19 PM CDT
Nautical Twilight 5:05 AM CDT 8:56 PM CDT
Astronomical Twilight 4:26 AM CDT 9:35 PM CDT
Moon 12:22 PM CDT (4/18) 2:06 AM CDT (4/18)
Length of Visible Light 14h 37m
Length of Day
13h 36m
First Quarter, 52% of the Moon is Illuminated
Apr 18
First Quarter
Apr 25
Full
May 2
Last Quarter
May 9
New
May 17
First Quarter

Hourly Weather History & Observations

Time (CDT) Temp. Windchill Dew Point Humidity Pressure Visibility Wind Dir Wind Speed Gust Speed Precip Events Conditions
12:33 AM 37.4 °F 30.3 °F 37.4 °F 100% 29.85 in 10.0 mi East 10.4 mph - N/A   Overcast
12:55 AM 38.5 °F 30.7 °F 38.1 °F 99% 29.83 in 10.0 mi East 12.7 mph - 0.03 in   Overcast
12:59 AM 39.2 °F 31.2 °F 37.4 °F 93% 29.82 in 10.0 mi East 13.8 mph - N/A Rain Light Rain
1:23 AM 39.2 °F 32.5 °F 39.2 °F 100% 29.78 in 10.0 mi East 10.4 mph - N/A   Overcast
1:55 AM 39.0 °F 31.0 °F 38.8 °F 99% 29.72 in 10.0 mi East 13.8 mph - 0.00 in   Overcast
2:12 AM 39.2 °F 35.9 °F 39.2 °F 100% 29.75 in 10.0 mi NNE 4.6 mph - N/A   Overcast
2:18 AM 39.2 °F 33.6 °F 39.2 °F 100% 29.74 in 10.0 mi ENE 8.1 mph - N/A   Overcast
2:55 AM 39.7 °F 34.9 °F 39.6 °F 99% 29.72 in 10.0 mi East 6.9 mph - N/A   Overcast
2:57 AM 39.2 °F 34.2 °F 39.2 °F 100% 29.72 in 10.0 mi East 6.9 mph - N/A   Overcast
3:55 AM 39.7 °F 35.6 °F 39.4 °F 99% 29.72 in 10.0 mi NE 5.8 mph - N/A   Overcast
4:55 AM 39.0 °F 32.8 °F 38.8 °F 99% 29.67 in 5.0 mi ENE 9.2 mph - N/A   Overcast
5:31 AM 39.2 °F 34.2 °F 39.2 °F 100% 29.67 in 2.5 mi NNE 6.9 mph - N/A   Overcast
5:35 AM 39.2 °F 34.2 °F 39.2 °F 100% 29.66 in 2.0 mi NNE 6.9 mph - N/A   Overcast
5:38 AM 39.2 °F 33.6 °F 37.4 °F 93% 29.66 in 1.8 mi North 8.1 mph - N/A   Overcast
5:42 AM 39.2 °F 33.6 °F 37.4 °F 93% 29.66 in 1.5 mi North 8.1 mph - N/A   Overcast
5:49 AM 37.4 °F 30.8 °F 37.4 °F 100% 29.65 in 1.8 mi NNE 9.2 mph - N/A   Overcast
5:53 AM 37.4 °F 31.4 °F 37.4 °F 100% 29.65 in 2.0 mi NNE 8.1 mph - N/A   Overcast
5:55 AM 38.1 °F 32.9 °F 37.8 °F 99% 29.65 in 2.0 mi NNE 6.9 mph - N/A   Overcast
5:57 AM 37.4 °F 32.8 °F 37.4 °F 100% 29.65 in 2.5 mi NE 5.8 mph - N/A   Overcast
6:00 AM 37.4 °F 32.1 °F 37.4 °F 100% 29.65 in 2.5 mi NNE 6.9 mph - N/A   Overcast
6:03 AM 37.4 °F 32.1 °F 37.4 °F 100% 29.66 in 3.0 mi NNE 6.9 mph - N/A   Overcast
6:12 AM 37.4 °F 32.8 °F 37.4 °F 100% 29.66 in 2.5 mi NNE 5.8 mph - N/A Rain Rain
6:23 AM 37.4 °F 32.8 °F 37.4 °F 100% 29.67 in 2.0 mi NNE 5.8 mph - N/A Rain Rain
6:41 AM 37.4 °F 33.8 °F 37.4 °F 100% 29.68 in 2.5 mi North 4.6 mph - N/A Rain Light Rain
6:50 AM 37.4 °F 33.8 °F 37.4 °F 100% 29.69 in 3.0 mi North 4.6 mph - N/A   Overcast
6:55 AM 37.4 °F 33.8 °F 37.4 °F 100% 29.69 in 2.0 mi North 4.6 mph - N/A Rain Light Rain
7:36 AM 37.4 °F 33.8 °F 37.4 °F 100% 29.66 in 3.0 mi North 4.6 mph - N/A   Light Drizzle
7:55 AM 37.4 °F 33.8 °F 37.4 °F 100% 29.68 in 4.0 mi NNE 4.6 mph - N/A   Light Drizzle
8:24 AM 37.4 °F 33.8 °F 37.4 °F 100% 29.65 in 3.0 mi NNE 4.6 mph - N/A   Light Drizzle
8:45 AM 37.4 °F 30.8 °F 37.4 °F 100% 29.66 in 4.0 mi NW 9.2 mph - N/A Rain Light Rain
8:55 AM 37.4 °F 32.1 °F 37.4 °F 100% 29.68 in 6.0 mi NNW 6.9 mph - N/A Rain Light Rain
9:17 AM 39.2 °F 31.2 °F 37.4 °F 93% 29.57 in 7.0 mi ENE 13.8 mph - N/A   Light Drizzle
9:40 AM 39.2 °F 34.2 °F 39.2 °F 100% 29.53 in 10.0 mi ENE 6.9 mph 18.4 mph N/A   Overcast
9:55 AM 39.2 °F 34.2 °F 39.2 °F 100% 29.57 in 10.0 mi ENE 6.9 mph - N/A   Overcast
10:37 AM 39.2 °F - 39.2 °F 100% 29.59 in 10.0 mi Calm Calm - N/A   Overcast
10:55 AM 39.2 °F 35.9 °F 39.2 °F 100% 29.58 in 10.0 mi North 4.6 mph - N/A   Overcast
11:55 AM 39.2 °F 35.0 °F 39.2 °F 100% 29.59 in 10.0 mi NNE 5.8 mph - N/A   Overcast
12:55 PM 41.0 °F 38.0 °F 39.2 °F 93% 29.55 in 10.0 mi NNE 4.6 mph - N/A   Overcast
1:02 PM 41.0 °F 37.1 °F 39.2 °F 93% 29.55 in 10.0 mi NNE 5.8 mph - N/A   Overcast
1:14 PM 41.0 °F 37.1 °F 39.2 °F 93% 29.51 in 3.0 mi NE 5.8 mph - N/A   Light Drizzle
1:55 PM 41.0 °F 35.8 °F 41.0 °F 100% 29.53 in 3.0 mi ENE 8.1 mph - N/A   Overcast
2:31 PM 41.0 °F 35.8 °F 41.0 °F 100% 29.48 in 2.5 mi ENE 8.1 mph - N/A   Overcast
2:55 PM 41.0 °F 35.8 °F 41.0 °F 100% 29.54 in 10.0 mi ENE 8.1 mph - N/A   Overcast
3:35 PM 41.0 °F 36.4 °F 41.0 °F 100% 29.43 in 1.2 mi ENE 6.9 mph - N/A Rain , Thunderstorm Light Thunderstorms and Rain
3:55 PM 41.0 °F 35.8 °F 41.0 °F 100% 29.44 in 3.0 mi ENE 8.1 mph - N/A   Light Drizzle
4:55 PM 41.0 °F 33.9 °F 41.0 °F 100% 29.39 in 1.5 mi East 12.7 mph - N/A   Light Drizzle
5:55 PM 41.0 °F 34.7 °F 41.0 °F 100% 29.34 in 2.0 mi East 10.4 mph - N/A   Light Drizzle
6:55 PM 41.0 °F 39.0 °F 41.0 °F 100% 29.30 in 6.0 mi East 3.5 mph - N/A   Overcast
7:55 PM 41.0 °F 38.0 °F 41.0 °F 100% 29.32 in 2.0 mi West 4.6 mph - N/A   Light Drizzle
8:55 PM 41.0 °F 34.7 °F 41.0 °F 100% 29.36 in 3.0 mi WSW 10.4 mph - N/A   Light Drizzle
9:41 PM 39.2 °F 31.6 °F 39.2 °F 100% 29.35 in 7.0 mi WSW 12.7 mph - N/A   Light Drizzle
9:55 PM 39.2 °F 33.6 °F 39.2 °F 100% 29.37 in 7.0 mi SW 8.1 mph - N/A   Light Drizzle
10:55 PM 39.2 °F 32.5 °F 37.4 °F 93% 29.35 in 10.0 mi SW 10.4 mph 18.4 mph N/A   Overcast
11:13 PM 37.4 °F 28.5 °F 35.6 °F 93% 29.34 in 10.0 mi WSW 15.0 mph - N/A Rain Light Rain
11:16 PM 37.4 °F 29.8 °F 35.6 °F 93% 29.34 in 10.0 mi WSW 11.5 mph - N/A Rain Light Rain
11:29 PM 37.4 °F 27.8 °F 35.6 °F 93% 29.34 in 10.0 mi WSW 17.3 mph - N/A Rain Light Rain
11:30 PM 37.4 °F 27.8 °F 35.6 °F 93% 29.34 in 10.0 mi WSW 17.3 mph - N/A   Overcast
11:45 PM 37.4 °F 28.2 °F 35.6 °F 93% 29.34 in 10.0 mi SW 16.1 mph 24.2 mph N/A Rain Light Rain
11:49 PM 37.4 °F 28.5 °F 35.6 °F 93% 29.34 in 10.0 mi WSW 15.0 mph 24.2 mph N/A   Light Drizzle
11:55 PM 36.3 °F 28.0 °F 34.5 °F 93% 29.34 in 10.0 mi SW 12.7 mph - 0.00 in   Light Drizzle
11:58 PM 35.6 °F 28.0 °F 33.8 °F 93% 29.34 in 10.0 mi SW 10.4 mph - N/A   Mostly Cloudy